Content
SEND FEEDBACK

Daily
Averages
Monthly
Summary
United States of America

TAMUNING, GUAM


Home > North America > United States > Guam
Elevation: 76 meters     Latitude: 13 29N     Longitude: 144 47E

WEATHER
 
SELECT A DAY
Number of Records: 350,245;   Date Range: 1/1/95 - 9/30/14
 
SHARE

PRINT THIS DATA

[ ← Previous Day ]
WEATHER ALMANAC - 31 MARCH, 2013
[ Next Day → ]
[ °F ]   °C
Weather ElementAverageHighLow
Temperature26.3 °C28.9 °C (12:55 pm)25 °C (12:58 am)
Dewpoint22.9 °C24 °C (1:07 am)21.7 °C (10:55 am)
Humidity81.9 %94 % (2:35 am)67 % (12:55 pm)
Barometer1011.9 hPa1014.2 hPa (9:46 am)1010.2 hPa (4:06 pm)
Wind Speed21.2 km/h27.8 km/h (2:36 am)
Wind Gust37 km/h (10:29 pm)
Weather ElementAverage
Visibility15.9 km
Wind DirectionE (85.5 °)

Weather ElementTotal
Precipitation---
Cooling Degree Days8.6 (Base 18.3)
Growing Degree Days16.9 (Base 10)
Averaged from 86 records on 31 March, 2013
WEATHER CONDITIONS BREAKOUT
WIND DIRECTION BREAKOUT
WEATHER BY HOUR - 31 MARCH, 2013
[ °F ]   °C
Local TimeTemperatureDewpointHumidityBarometerVisibilityWind DirectionWind SpeedGust SpeedPrecipitationEventsConditions
12:58 AM25 °C23 °C89 %1012.2 hPa16.1 kmENE (60°)22.2 km/hMostly Cloudy
12:59 AM25 °C23 °C89 %1012.2 hPa16.1 kmENE (60°)24.1 km/hLight Drizzle
1:01 AM26 °C23 °C83 %1012.2 hPa16.1 kmENE (70°)22.2 km/hLight Drizzle
1:02 AM26 °C23 °C83 %1012.2 hPa16.1 kmENE (70°)20.4 km/hLight Drizzle
1:07 AM26 °C24 °C89 %1012.2 hPa16.1 kmEast (90°)24.1 km/hMostly Cloudy
1:17 AM26 °C23 °C83 %1011.9 hPa16.1 kmEast (80°)22.2 km/hMostly Cloudy
1:23 AM26 °C23 °C83 %1011.9 hPa16.1 kmEast (90°)22.2 km/hMostly Cloudy
1:55 AM25.6 °C23.1 °C86 %1011.9 hPa16.1 kmEast (80°)20.4 km/h0 mmMostly Cloudy
2:22 AM25 °C23 °C89 %1011.5 hPa12.9 kmEast (80°)25.9 km/hRainLight Rain
2:29 AM25 °C23 °C89 %1011.5 hPa9.7 kmEast (80°)22.2 km/hRainLight Rain
2:35 AM25 °C24 °C94 %1011.5 hPa14.5 kmEast (80°)25.9 km/hRainLight Rain
2:36 AM25 °C24 °C94 %1011.5 hPa16.1 kmEast (90°)27.8 km/hMostly Cloudy
2:37 AM25 °C23 °C89 %1011.5 hPa16.1 kmEast (90°)25.9 km/hMostly Cloudy
2:47 AM25 °C23 °C89 %1011.5 hPa16.1 kmEast (90°)22.2 km/hScattered Clouds
2:49 AM25 °C23 °C89 %1011.5 hPa16.1 kmEast (90°)24.1 km/hMostly Cloudy
2:51 AM25 °C23 °C89 %1011.5 hPa16.1 kmEast (90°)18.5 km/h33.3 km/hMostly Cloudy
2:55 AM25.2 °C23.1 °C88 %1011.5 hPa16.1 kmEast (90°)27.8 km/h33.3 km/h0 mmMostly Cloudy
3:00 AM25 °C23 °C89 %1011.5 hPa16.1 kmEast (90°)24.1 km/h33.3 km/hMostly Cloudy
3:06 AM25 °C22 °C83 %1011.5 hPa16.1 kmEast (90°)24.1 km/hScattered Clouds
3:17 AM25 °C23 °C89 %1011.2 hPa16.1 kmEast (90°)20.4 km/hMostly Cloudy
3:20 AM25 °C23 °C89 %1011.2 hPa16.1 kmEast (80°)25.9 km/hMostly Cloudy
3:55 AM25.1 °C22.4 °C85 %1011.5 hPa16.1 kmEast (90°)22.2 km/hScattered Clouds
4:28 AM25 °C22 °C83 %1011.5 hPa16.1 kmEast (90°)24.1 km/hScattered Clouds
4:55 AM25.2 °C22.7 °C86 %1011.5 hPa16.1 kmEast (90°)20.4 km/hPartly Cloudy
5:42 AM25 °C23 °C89 %1011.9 hPa16.1 kmEast (90°)14.8 km/hMostly Cloudy
5:47 AM25 °C23 °C89 %1011.9 hPa16.1 kmEast (90°)22.2 km/hMostly Cloudy
5:55 AM25.3 °C22.1 °C82 %1011.9 hPa16.1 kmEast (90°)20.4 km/hMostly Cloudy
6:54 AM26 °C23 °C83 %1012.9 hPa16.1 kmEast (90°)14.8 km/hMostly Cloudy
6:55 AM25.7 °C22.6 °C83 %1012.9 hPa16.1 kmEast (90°)16.7 km/hMostly Cloudy
7:04 AM26 °C22 °C78 %1012.9 hPa16.1 kmEast (90°)16.7 km/hMostly Cloudy
7:55 AM26.7 °C23 °C80 %1013.5 hPa16.1 kmEast (100°)14.8 km/hMostly Cloudy
8:55 AM27.4 °C23 °C77 %1013.9 hPa16.1 kmEast (90°)18.5 km/hMostly Cloudy
9:46 AM28 °C23 °C74 %1014.2 hPa16.1 kmEast (90°)24.1 km/hMostly Cloudy
9:55 AM27.4 °C23 °C77 %1013.9 hPa16.1 kmEast (100°)16.7 km/hMostly Cloudy
10:14 AM28 °C23 °C74 %1013.9 hPa16.1 kmEast (100°)20.4 km/hMostly Cloudy
10:20 AM28 °C23 °C74 %1013.9 hPa16.1 kmEast (90°)22.2 km/hMostly Cloudy
10:39 AM27 °C22 °C74 %1013.9 hPa16.1 kmEast (90°)22.2 km/hOvercast
10:55 AM28.1 °C21.7 °C68 %1013.9 hPa16.1 kmESE (110°)20.4 km/hMostly Cloudy
11:20 AM27 °C22 °C74 %1013.9 hPa16.1 kmESE (110°)14.8 km/hMostly Cloudy
11:22 AM27 °C22 °C74 %1013.9 hPa16.1 kmEast (90°)16.7 km/hMostly Cloudy
11:23 AM27 °C22 °C74 %1013.9 hPa16.1 kmEast (90°)18.5 km/hMostly Cloudy
11:30 AM27 °C23 °C79 %1013.5 hPa16.1 kmEast (80°)22.2 km/hMostly Cloudy
11:38 AM27 °C23 °C79 %1013.5 hPa16.1 kmEast (90°)20.4 km/hOvercast
11:48 AM27 °C22 °C74 %1013.5 hPa16.1 kmEast (100°)13 km/hOvercast
11:55 AM27.4 °C21.9 °C72 %1013.2 hPa16.1 kmEast (90°)13 km/hMostly Cloudy
12:55 PM28.9 °C22.2 °C67 %1012.2 hPa16.1 kmEast (100°)20.4 km/hPartly Cloudy
1:55 PM28.5 °C22.3 °C69 %1011.2 hPa16.1 kmENE (60°)18.5 km/hClear
2:55 PM28.4 °C23.3 °C74 %1010.8 hPa16.1 kmENE (70°)20.4 km/hScattered Clouds
3:10 PM28 °C24 °C79 %1010.5 hPa16.1 kmENE (70°)20.4 km/hMostly Cloudy
3:18 PM28 °C24 °C79 %1010.5 hPa16.1 kmENE (60°)20.4 km/hScattered Clouds
3:28 PM28 °C24 °C79 %1010.5 hPa16.1 kmENE (70°)14.8 km/hMostly Cloudy
3:55 PM27.8 °C23.7 °C78 %1010.5 hPa16.1 kmEast (80°)20.4 km/hMostly Cloudy
4:06 PM28 °C23 °C74 %1010.2 hPa16.1 kmEast (90°)24.1 km/hMostly Cloudy
4:08 PM28 °C23 °C74 %1010.2 hPa16.1 kmEast (80°)22.2 km/hScattered Clouds
4:28 PM27 °C23 °C79 %1010.5 hPa16.1 kmEast (80°)20.4 km/hMostly Cloudy
4:37 PM27 °C23 °C79 %1010.5 hPa16.1 kmEast (80°)24.1 km/hMostly Cloudy
4:55 PM27 °C23.1 °C79 %1010.8 hPa16.1 kmEast (90°)22.2 km/hOvercast
5:12 PM27 °C23 °C79 %1010.8 hPa16.1 kmEast (90°)24.1 km/hMostly Cloudy
5:24 PM27 °C23 °C79 %1010.8 hPa16.1 kmEast (80°)24.1 km/hMostly Cloudy
5:26 PM27 °C23 °C79 %1010.8 hPa16.1 kmEast (90°)22.2 km/hMostly Cloudy
5:30 PM26 °C23 °C83 %1010.8 hPa16.1 kmEast (100°)20.4 km/hMostly Cloudy
5:35 PM26 °C23 °C83 %1010.8 hPa16.1 kmEast (90°)22.2 km/hScattered Clouds
5:37 PM27 °C23 °C79 %1011.2 hPa16.1 kmEast (90°)24.1 km/hMostly Cloudy
5:45 PM26 °C23 °C83 %1011.2 hPa16.1 kmEast (90°)20.4 km/hScattered Clouds
5:55 PM26.4 °C23 °C81 %1011.2 hPa16.1 kmEast (90°)22.2 km/hScattered Clouds
6:37 PM26 °C23 °C83 %1011.2 hPa16.1 kmEast (100°)18.5 km/hMostly Cloudy
6:43 PM26 °C23 °C83 %1011.2 hPa16.1 kmEast (100°)18.5 km/hScattered Clouds
6:44 PM26 °C23 °C83 %1011.2 hPa16.1 kmEast (90°)20.4 km/hMostly Cloudy
6:55 PM26.1 °C23.2 °C84 %1011.5 hPa16.1 kmEast (80°)22.2 km/h0 mmRainLight Rain
7:11 PM26 °C23 °C83 %1011.5 hPa16.1 kmEast (90°)18.5 km/hMostly Cloudy
7:13 PM26 °C23 °C83 %1011.5 hPa16.1 kmEast (90°)16.7 km/hScattered Clouds
7:44 PM26 °C23 °C83 %1011.9 hPa16.1 kmEast (80°)24.1 km/hMostly Cloudy
7:46 PM26 °C23 °C83 %1011.9 hPa16.1 kmEast (80°)20.4 km/hMostly Cloudy
7:48 PM26 °C23 °C83 %1011.9 hPa16.1 kmEast (80°)20.4 km/hMostly Cloudy
7:55 PM25.7 °C23 °C85 %1011.9 hPa16.1 kmEast (80°)24.1 km/h0 mmMostly Cloudy
8:08 PM26 °C23 °C83 %1011.9 hPa16.1 kmEast (90°)20.4 km/hScattered Clouds
8:55 PM25.8 °C22.5 °C82 %1012.5 hPa16.1 kmEast (80°)22.2 km/hClear
9:55 PM25.7 °C23.7 °C89 %1012.9 hPa16.1 kmEast (80°)18.5 km/hScattered Clouds
9:57 PM26 °C24 °C89 %1012.9 hPa16.1 kmENE (70°)18.5 km/hMostly Cloudy
10:20 PM26 °C23 °C83 %1012.9 hPa16.1 kmEast (80°)24.1 km/hMostly Cloudy
10:29 PM26 °C23 °C83 %1012.9 hPa16.1 kmEast (80°)27.8 km/h37 km/hScattered Clouds
10:55 PM26 °C22.7 °C82 %1012.9 hPa16.1 kmEast (80°)24.1 km/hScattered Clouds
11:08 PM26 °C23 °C83 %1012.9 hPa16.1 kmEast (80°)20.4 km/hMostly Cloudy
11:25 PM26 °C23 °C83 %1012.9 hPa16.1 kmEast (80°)24.1 km/hScattered Clouds
11:33 PM26 °C23 °C83 %1012.9 hPa16.1 kmEast (80°)18.5 km/hMostly Cloudy
11:55 PM25.9 °C23.1 °C84 %1012.9 hPa16.1 kmENE (70°)27.8 km/hMostly Cloudy
Hourly data recorded from PGUA, located 0 kilometers away from Tamuning, Guam







STORIES FROM OUR PARTNERS